Location: Newark
(45.0500°N, 41.9667°E)
Time: 07:19:07
(UTC+00:00)

Starlink (trailer) - Pass Details

Date: 25 July 2019
Orbit: 549 x 550 km, 53.0° (Epoch: 21 August)

Event Time Altitude Azimuth Distance (km) Brightness Sun altitude
Rises 00:22:47 0° 294° (WNW) 2,722 7.0 -12.9°
Reaches altitude 10° 00:25:17 10° 306° (NW) 1,828 6.2 -12.5°
Maximum altitude 00:28:53 28° 6° (N) 1,063 5.7 -12.1°
Drops below altitude 10° 00:32:28 10° 66° (ENE) 1,827 7.5 -11.6°
Sets 00:34:58 0° 79° (E) 2,721 8.2 -11.3°
